Folgueroles (Osona)





Hora UTC 22:35
Temperatura 22.6 ºC
Humedad 78.0 %
Presión 1014.2 hPa
Pluja 0.0 mm
Velocidad viento 0.0 km/h
Dirección viento W

Datos diarios 2024-07-24



Hora UTC (invierno +1h; verano +2h)
Temperatura (ºC) Humedad (%) Presión (hPa) Velocidad viento (km/h) Precipitación (mm)
Hora UTC Aire Humedad Presión Vel. Dir. Vel. Max Dir. Intent. máx 5 min.
00:05 21.9 77.0 1018.5 0.0 ENE 0.0 0.0
00:10 21.9 78.0 1018.5 0.0 ENE 0.0 0.0
00:15 21.8 78.0 1018.4 0.0 ENE 0.0 0.0
00:20 21.7 78.0 1018.5 0.0 ENE 0.0 0.0
00:25 21.6 78.0 1018.4 0.0 ENE 0.0 0.0
00:30 21.6 78.0 1018.3 0.0 ENE 0.0 0.0
00:35 21.5 78.0 1018.3 0.0 ENE 0.0 0.0
00:40 21.4 78.0 1018.3 0.0 ENE 0.0 0.0
00:45 21.4 78.0 1018.3 0.0 ENE 0.0 0.0
00:50 21.3 79.0 1018.3 0.0 ENE 0.0 0.0
00:55 21.3 79.0 1018.3 0.0 ENE 0.0 0.0
01:00 21.2 80.0 1018.2 0.0 ENE 0.0 0.0
01:05 21.1 80.0 1018.2 0.0 ENE 0.0 0.0
01:10 21.1 80.0 1018.2 0.0 ENE 0.0 0.0
01:15 21.1 80.0 1018.2 0.0 ENE 0.0 0.0
01:20 21.0 80.0 1018.3 0.0 ENE 0.0 0.0
01:25 20.9 81.0 1018.3 0.0 ENE 0.0 0.0
01:30 20.8 81.0 1018.3 0.0 ENE 0.0 0.0
01:35 20.8 81.0 1018.3 0.0 ENE 0.0 0.0
01:40 20.7 81.0 1018.1 0.0 ENE 0.0 0.0
01:45 20.7 81.0 1018.2 0.0 ENE 0.0 0.0
01:50 20.6 82.0 1018.1 0.0 ENE 0.0 0.0
01:55 20.5 82.0 1018.1 0.0 ENE 0.0 0.0
02:00 20.4 82.0 1018.1 0.0 ENE 0.0 0.0
02:05 20.4 82.0 1018.1 0.0 ENE 0.0 0.0
02:10 20.4 82.0 1017.9 0.0 ENE 0.0 0.0
02:15 20.3 83.0 1017.8 0.0 ENE 0.0 0.0
02:20 20.3 83.0 1017.9 0.0 ENE 0.0 0.0
02:25 20.3 83.0 1017.8 0.0 ENE 0.0 0.0
02:30 20.3 82.0 1017.8 0.0 ENE 0.0 0.0
02:35 20.3 82.0 1017.7 0.0 ENE 0.0 0.0
02:40 20.2 83.0 1017.7 0.0 ENE 0.0 0.0
02:45 20.2 83.0 1017.7 0.0 ENE 0.0 0.0
02:50 20.1 83.0 1017.7 0.0 ENE 0.0 0.0
02:55 20.1 83.0 1017.6 0.0 ENE 0.0 0.0
03:00 20.1 82.0 1017.6 0.0 ENE 0.0 0.0
03:05 20.1 82.0 1017.6 0.0 ENE 0.0 0.0
03:10 20.1 82.0 1017.5 0.0 ENE 0.0 0.0
03:15 20.0 82.0 1017.5 0.0 ENE 0.0 0.0
03:20 19.9 82.0 1017.5 0.0 ENE 0.0 0.0
03:25 19.8 82.0 1017.5 0.0 ENE 0.0 0.0
03:30 19.8 82.0 1017.5 0.0 ENE 0.0 0.0
03:35 19.6 83.0 1017.6 0.0 ENE 0.0 0.0
03:40 19.4 82.0 1017.6 0.0 ENE 0.0 0.0
03:45 19.4 83.0 1017.5 0.0 ENE 0.0 0.0
03:50 19.3 83.0 1017.6 0.0 ENE 0.0 0.0
03:55 19.2 83.0 1017.6 0.0 ENE 0.0 0.0
04:00 19.1 84.0 1017.6 0.0 ENE 0.0 0.0
04:05 19.0 84.0 1017.7 0.0 ENE 0.0 0.0
04:10 18.9 84.0 1017.7 0.0 ENE 0.0 0.0
04:15 18.8 84.0 1017.7 0.0 ENE 0.0 0.0
04:20 18.7 85.0 1017.7 0.0 ENE 0.0 0.0
04:25 18.7 85.0 1017.7 0.0 ENE 0.0 0.0
04:30 18.6 85.0 1017.7 0.0 ENE 0.0 0.0
04:35 18.6 86.0 1017.6 0.0 ENE 0.0 0.0
04:40 18.6 86.0 1017.6 0.0 ENE 0.0 0.0
04:45 18.6 86.0 1017.7 0.0 ENE 0.0 0.0
04:50 18.6 86.0 1017.6 0.0 ENE 0.0 0.0
04:55 18.5 86.0 1017.7 0.0 ENE 0.0 0.0
05:00 18.5 86.0 1017.5 0.0 ENE 0.0 0.0
05:05 18.5 86.0 1017.5 0.0 ENE 0.0 0.0
05:10 18.6 86.0 1017.5 0.0 ENE 0.0 0.0
05:15 18.6 86.0 1017.6 0.0 ENE 0.0 0.0
05:20 18.6 86.0 1017.6 0.0 ENE 0.0 0.0
05:25 18.8 87.0 1017.6 0.0 ENE 0.0 0.0
05:30 19.0 86.0 1017.6 0.0 ENE 0.0 0.0
05:35 19.4 86.0 1017.7 0.0 ENE 0.0 0.0
05:40 19.8 85.0 1017.7 0.0 ENE 0.0 0.0
05:45 20.2 83.0 1017.6 0.0 ENE 0.0 0.0
05:50 20.6 82.0 1017.6 0.0 ENE 0.0 0.0
05:55 20.8 81.0 1017.5 1.6 ENE 3.2 0.0
06:00 21.1 81.0 1017.6 0.0 ENE 3.2 0.0
06:05 21.6 80.0 1017.5 0.0 ENE 0.0 0.0
06:10 21.9 78.0 1017.5 0.0 ENE 0.0 0.0
06:15 22.1 78.0 1017.5 0.0 ENE 0.0 0.0
06:20 22.3 77.0 1017.5 0.0 ENE 0.0 0.0
06:25 22.3 77.0 1017.5 0.0 ENE 0.0 0.0
06:30 22.4 77.0 1017.5 0.0 ENE 0.0 0.0
06:35 22.5 77.0 1017.5 0.0 ENE 0.0 0.0
06:40 22.5 77.0 1017.5 4.8 NNE 6.4 0.0
06:45 22.3 77.0 1017.5 3.2 NNE 6.4 0.0
06:50 22.1 78.0 1017.4 0.0 NNE 6.4 0.0
06:55 22.1 78.0 1017.4 1.6 N 4.8 0.0
07:00 22.1 78.0 1017.3 3.2 N 6.4 0.0
07:05 22.1 78.0 1017.4 1.6 N 6.4 0.0
07:10 22.2 78.0 1017.5 3.2 N 6.4 0.0
07:15 22.2 78.0 1017.4 3.2 NNW 8.0 0.0
07:20 22.3 77.0 1017.4 1.6 NNE 8.0 0.0
07:25 22.4 77.0 1017.4 1.6 NNE 6.4 0.0
07:30 22.6 77.0 1017.4 4.8 NNE 6.4 0.0
07:35 22.7 77.0 1017.3 0.0 N 6.4 0.0
07:40 22.8 76.0 1017.3 0.0 N 4.8 0.0
07:45 22.9 76.0 1017.3 0.0 N 4.8 0.0
07:50 23.1 75.0 1017.3 3.2 N 6.4 0.0
07:55 23.3 74.0 1017.2 0.0 N 6.4 0.0
08:00 23.4 73.0 1017.3 0.0 N 4.8 0.0
08:05 23.6 73.0 1017.3 0.0 N 4.8 0.0
08:10 23.7 72.0 1017.2 0.0 N 3.2 0.0
08:15 23.9 71.0 1017.1 4.8 NNE 6.4 0.0
08:20 24.2 70.0 1017.1 1.6 NNW 6.4 0.0
08:25 24.4 70.0 1017.0 0.0 NNW 1.6 0.0
08:30 24.7 67.0 1017.0 0.0 NNW 1.6 0.0
08:35 24.9 68.0 1016.8 0.0 NNW 0.0 0.0
08:40 25.1 65.0 1016.8 0.0 NNW 0.0 0.0
08:45 25.4 64.0 1016.8 0.0 NNW 0.0 0.0
08:50 25.7 62.0 1016.8 6.4 S 6.4 0.0
08:55 26.1 62.0 1016.7 0.0 S 6.4 0.0
09:00 26.4 60.0 1016.6 0.0 S 3.2 0.0
09:05 26.8 58.0 1016.6 1.6 SSW 6.4 0.0
09:10 27.1 59.0 1016.5 0.0 SSW 6.4 0.0
09:15 27.4 58.0 1016.5 0.0 WSW 1.6 0.0
09:20 27.7 56.0 1016.4 0.0 SW 4.8 0.0
09:25 27.9 55.0 1016.4 0.0 ESE 4.8 0.0
09:30 28.1 56.0 1016.3 0.0 SE 4.8 0.0
09:35 28.4 53.0 1016.3 0.0 SE 1.6 0.0
09:40 28.7 54.0 1016.2 0.0 WSW 1.6 0.0
09:45 28.9 54.0 1016.3 0.0 NW 3.2 0.0
09:50 29.2 52.0 1016.2 0.0 W 3.2 0.0
09:55 29.7 53.0 1016.1 0.0 W 3.2 0.0
10:00 30.0 49.0 1016.1 0.0 SW 3.2 0.0
10:05 30.3 48.0 1016.0 0.0 SW 3.2 0.0
10:10 30.6 50.0 1015.9 0.0 N 6.4 0.0
10:15 30.8 48.0 1015.9 0.0 N 6.4 0.0
10:20 31.0 47.0 1015.8 0.0 N 4.8 0.0
10:25 30.9 44.0 1015.7 6.4 SE 9.7 0.0
10:30 30.8 44.0 1015.7 0.0 SSW 11.3 0.0
10:35 30.8 45.0 1015.6 0.0 SSW 9.7 0.0
10:40 30.9 44.0 1015.6 1.6 SSW 8.0 0.0
10:45 31.1 45.0 1015.5 0.0 W 9.7 0.0
10:50 31.4 44.0 1015.5 0.0 SSW 14.5 0.0
10:55 31.8 44.0 1015.4 0.0 SSW 14.5 0.0
11:00 31.9 43.0 1015.4 0.0 SW 8.0 0.0
11:05 32.2 43.0 1015.4 3.2 NE 8.0 0.0
11:10 32.6 41.0 1015.3 6.4 S 8.0 0.0
11:15 32.7 43.0 1015.1 6.4 SSE 11.3 0.0
11:20 33.0 43.0 1015.1 1.6 WNW 8.0 0.0
11:25 33.2 40.0 1015.1 0.0 W 8.0 0.0
11:30 33.4 42.0 1015.1 0.0 WSW 8.0 0.0
11:35 33.3 41.0 1015.0 0.0 SW 11.3 0.0
11:40 33.3 43.0 1014.8 0.0 SW 11.3 0.0
11:45 33.4 40.0 1014.9 0.0 SSW 11.3 0.0
11:50 33.6 40.0 1014.8 0.0 SW 8.0 0.0
11:55 33.9 42.0 1014.7 11.3 SW 12.9 0.0
12:00 34.3 41.0 1014.6 0.0 SSW 11.3 0.0
12:05 34.5 38.0 1014.6 0.0 W 11.3 0.0
12:10 34.7 37.0 1014.4 0.0 W 9.7 0.0
12:15 34.7 36.0 1014.5 3.2 SSE 8.0 0.0
12:20 34.7 37.0 1014.4 0.0 S 9.7 0.0
12:25 34.8 37.0 1014.3 0.0 W 9.7 0.0
12:30 35.0 38.0 1014.3 0.0 WSW 4.8 0.0
12:35 34.9 38.0 1014.2 1.6 N 9.7 0.0
12:40 34.8 36.0 1014.3 0.0 NNE 9.7 0.0
12:45 34.7 36.0 1014.2 1.6 SSW 8.0 0.0
12:50 34.7 38.0 1014.1 1.6 SW 8.0 0.0
12:55 34.9 38.0 1014.1 0.0 SW 8.0 0.0
13:00 35.2 37.0 1014.0 0.0 S 8.0 0.0
13:05 35.2 35.0 1014.0 0.0 NE 8.0 0.0
13:10 34.9 37.0 1014.0 0.0 S 14.5 0.0
13:15 35.0 39.0 1013.9 0.0 NW 14.5 0.0
13:20 35.0 38.0 1013.9 3.2 SW 12.9 0.0
13:25 34.9 39.0 1014.0 6.4 S 14.5 0.0
13:30 34.9 39.0 1014.0 0.0 S 14.5 0.0
13:35 34.8 40.0 1013.9 3.2 SSW 12.9 0.0
13:40 35.0 40.0 1013.8 0.0 WNW 11.3 0.0
13:45 35.2 39.0 1013.9 1.6 W 6.4 0.0
13:50 35.4 48.0 1013.6 8.0 N 12.9 0.0
13:55 34.9 47.0 1013.8 12.9 ENE 19.3 0.0
14:00 33.7 50.0 1013.7 14.5 E 19.3 0.0
14:05 32.8 51.0 1013.7 4.8 E 19.3 0.0
14:10 32.4 53.0 1013.6 16.1 NE 19.3 0.0
14:15 32.2 53.0 1013.6 6.4 E 19.3 0.0
14:20 31.9 54.0 1013.5 4.8 ENE 16.1 0.0
14:25 31.6 54.0 1013.6 3.2 ENE 14.5 0.0
14:30 31.3 54.0 1013.4 6.4 ENE 14.5 0.0
14:35 31.3 53.0 1013.5 0.0 SSW 14.5 0.0
14:40 31.6 53.0 1013.4 16.1 ENE 19.3 0.0
14:45 31.6 52.0 1013.4 12.9 E 19.3 0.0
14:50 31.3 53.0 1013.5 6.4 E 14.5 0.0
14:55 30.9 53.0 1013.4 14.5 E 16.1 0.0
15:00 30.6 53.0 1013.5 14.5 ENE 17.7 0.0
15:05 30.4 52.0 1013.5 9.7 ENE 17.7 0.0
15:10 30.4 52.0 1013.4 3.2 ENE 17.7 0.0
15:15 30.6 52.0 1013.4 3.2 S 17.7 0.0
15:20 30.8 51.0 1013.5 1.6 ENE 8.0 0.0
15:25 30.9 51.0 1013.4 0.0 SSW 16.1 0.0
15:30 30.8 52.0 1013.3 8.0 ENE 17.7 0.0
15:35 30.5 52.0 1013.3 0.0 ENE 17.7 0.0
15:40 30.5 52.0 1013.3 8.0 NE 16.1 0.0
15:45 30.7 52.0 1013.2 0.0 SE 16.1 0.0
15:50 30.9 52.0 1013.0 3.2 ENE 16.1 0.0
15:55 31.1 52.0 1013.0 4.8 ENE 16.1 0.0
16:00 31.1 52.0 1013.0 0.0 S 14.5 0.0
16:05 30.9 52.0 1013.0 3.2 ENE 14.5 0.0
16:10 30.7 53.0 1013.0 3.2 E 16.1 0.0
16:15 30.6 54.0 1013.0 9.7 ENE 16.1 0.0
16:20 30.4 55.0 1013.0 11.3 NE 20.9 0.0
16:25 30.3 55.0 1012.9 6.4 ENE 20.9 0.0
16:30 30.3 55.0 1012.9 9.7 ENE 20.9 0.0
16:35 30.4 55.0 1012.9 12.9 ENE 20.9 0.0
16:40 30.3 56.0 1012.9 11.3 ENE 19.3 0.0
16:45 30.3 56.0 1012.9 6.4 ENE 19.3 0.0
16:50 30.3 57.0 1012.9 6.4 ENE 19.3 0.0
16:55 30.3 57.0 1013.0 14.5 ENE 19.3 0.0
17:00 30.2 57.0 1012.9 12.9 ENE 20.9 0.0
17:05 30.2 58.0 1013.0 14.5 ENE 20.9 0.0
17:10 30.1 58.0 1013.0 8.0 NE 22.5 0.0
17:15 30.0 59.0 1013.1 8.0 NE 22.5 0.0
17:20 29.9 59.0 1013.0 9.7 ENE 11.3 0.0
17:25 29.7 59.0 1013.0 3.2 ENE 16.1 0.0
17:30 29.7 60.0 1013.0 14.5 NE 19.3 0.0
17:35 29.4 60.0 1013.0 16.1 NE 19.3 0.0
17:40 29.2 61.0 1013.1 12.9 NNE 22.5 0.0
17:45 29.2 61.0 1013.1 12.9 ENE 19.3 0.0
17:50 29.2 60.0 1013.1 9.7 NE 16.1 0.0
17:55 29.1 60.0 1013.1 11.3 NE 16.1 0.0
18:00 29.0 60.0 1013.1 8.0 NE 16.1 0.0
18:05 28.9 60.0 1013.2 6.4 NNE 16.1 0.0
18:10 28.8 61.0 1013.2 3.2 NE 14.5 0.0
18:15 28.8 61.0 1013.3 1.6 NE 9.7 0.0
18:20 28.7 61.0 1013.3 3.2 NE 8.0 0.0
18:25 28.6 62.0 1013.4 3.2 ENE 8.0 0.0
18:30 28.4 62.0 1013.4 4.8 ENE 8.0 0.0
18:35 28.4 62.0 1013.4 3.2 ENE 6.4 0.0
18:40 28.3 62.0 1013.4 3.2 ENE 6.4 0.0
18:45 28.2 63.0 1013.5 0.0 ENE 4.8 0.0
18:50 28.1 63.0 1013.5 4.8 NE 6.4 0.0
18:55 27.9 63.0 1013.4 0.0 NE 6.4 0.0
19:00 27.8 63.0 1013.5 3.2 NE 6.4 0.0
19:05 27.7 64.0 1013.6 0.0 NE 6.4 0.0
19:10 27.6 64.0 1013.8 0.0 NE 0.0 0.0
19:15 27.4 64.0 1013.7 0.0 NE 0.0 0.0
19:20 27.3 65.0 1013.9 0.0 NE 0.0 0.0
19:25 27.2 66.0 1013.9 0.0 WSW 0.0 0.0
19:30 27.1 66.0 1014.0 0.0 WSW 0.0 0.0
19:35 26.9 66.0 1014.0 6.4 SSW 6.4 0.0
19:40 26.7 66.0 1014.0 0.0 SSW 6.4 0.0
19:45 26.6 67.0 1014.0 3.2 SSW 4.8 0.0
19:50 26.5 67.0 1014.0 0.0 SSW 4.8 0.0
19:55 26.4 67.0 1014.0 0.0 SSW 4.8 0.0
20:00 26.3 67.0 1014.0 0.0 SSW 0.0 0.0
20:05 26.2 68.0 1014.0 0.0 SSW 0.0 0.0
20:10 26.1 68.0 1014.0 0.0 SSW 0.0 0.0
20:15 25.9 69.0 1014.0 0.0 SSW 0.0 0.0
20:20 25.8 69.0 1014.0 0.0 SSW 0.0 0.0
20:25 25.7 69.0 1014.0 0.0 SSW 0.0 0.0
20:30 25.4 70.0 1013.9 0.0 SSW 0.0 0.0
20:35 25.3 70.0 1014.0 0.0 SSW 0.0 0.0
20:40 25.1 71.0 1014.1 0.0 SSW 0.0 0.0
20:45 24.9 72.0 1014.1 0.0 SSW 0.0 0.0
20:50 24.8 72.0 1014.1 0.0 SSW 0.0 0.0
20:55 24.6 73.0 1014.1 0.0 SSW 0.0 0.0
21:00 24.4 73.0 1014.1 0.0 SSW 0.0 0.0
21:05 24.2 74.0 1014.1 0.0 SSW 0.0 0.0
21:10 24.1 74.0 1014.3 0.0 SSW 0.0 0.0
21:15 23.9 75.0 1014.3 0.0 SSW 0.0 0.0
21:20 23.8 75.0 1014.3 0.0 SSW 0.0 0.0
21:25 23.7 76.0 1014.3 0.0 SSW 0.0 0.0
21:30 23.6 76.0 1014.3 0.0 SSW 0.0 0.0
21:35 23.6 76.0 1014.3 0.0 SSW 0.0 0.0
21:40 23.4 76.0 1014.3 0.0 SSW 0.0 0.0
21:45 23.4 76.0 1014.3 0.0 SSW 0.0 0.0
21:50 23.3 76.0 1014.3 0.0 SSW 0.0 0.0
21:55 23.3 76.0 1014.3 0.0 SSW 0.0 0.0
22:00 23.2 76.0 1014.3 0.0 SSW 0.0 0.0
22:05 23.1 77.0 1014.3 0.0 W 0.0 0.0
22:10 23.1 77.0 1014.5 0.0 W 0.0 0.0
22:15 23.0 77.0 1014.3 0.0 W 0.0 0.0
22:20 22.9 77.0 1014.2 0.0 W 0.0 0.0
22:25 22.8 77.0 1014.3 0.0 W 0.0 0.0
22:30 22.7 77.0 1014.3 0.0 W 0.0 0.0
22:35 22.6 78.0 1014.2 0.0 W 0.0 0.0
Máxima 35.4 87.0 1018.5 16.1 NE 22.5 0.0
Mínima 18.5 35.0 1012.9
Total 0.0